パンスターズ彗星

419P/PanSTARRS (2021)

English version
Home page
Updated on February 19, 2022

---------------------------------------------------------------------

・ プロフィール

符号 P/2021 A11
符号 419P/2021 A11
検出日 2021年1月13日
検出光度 21.3等
検出者 E. Schwab (Egelsbach, Germany)

・ 軌道要素

Epoch 2022 Jan. 21.0 TT = JDT 2459600.5
T 2021 Oct. 27.46209 TT                                 Rudenko
q   2.5432640            (2000.0)            P               Q
n   0.14920258     Peri.  187.50194     -0.67063339     +0.74111185
a   3.5206146      Node    40.38991     -0.67801324     -0.59508719
e   0.2776080      Incl.    2.80294     -0.30091343     -0.31084474
P   6.61
From 251 observations 2015 Jan. 24-2021 Aug. 3, mean residual 0".6.

・ 光度変化

        m1 = 10.0 + 5 logΔ + 20.0 log r

        ※ 灰色の曲線は、m1 = 7.5 + 5 logΔ + 20.0 log r の光度曲線です。

---------------------------------------------------------------------

軌道要素はM.P.E.C. 2022-C234に掲載されたものです。
光度グラフはComet for Windowsで作成したものです。

---------------------------------------------------------------------

Copyright(C) Seiichi Yoshida (comet@aerith.net). All rights reserved.